Location: Unspecified
(0.0000°N, 0.0000°E)
Time: 15:05:12
(UTC+02:00)

ASC 2 Rocket - Visible Passes

Search period start: 28 August 2014 00:00
Search period end: 07 September 2014 00:00
Orbit: 556 x 2349 km, 24.0° (Epoch: 25 August)

Date Brightness Start Highest point End Pass type
(mag) Time Alt. Az. Time Alt. Az. Time Alt. Az.
28 Aug 6.9 04:15:23 21° SE 04:15:23 21° SE 04:21:06 10° ESE visible
28 Aug 6.1 06:10:15 28° SW 06:17:14 51° SSE 06:31:05 10° E visible
28 Aug 4.0 20:48:15 10° W 20:52:03 36° SSW 20:55:20 13° SE visible
29 Aug 6.1 05:08:48 38° SSE 05:09:49 38° SSE 05:22:07 10° E visible
29 Aug 5.9 07:03:41 14° WSW 07:15:19 79° SSE 07:29:55 10° ENE visible
29 Aug 5.3 21:47:00 10° SW 21:48:55 14° SSW 21:48:55 14° SSW visible
30 Aug 6.9 04:07:21 21° ESE 04:07:21 21° ESE 04:12:26 10° ESE visible
30 Aug 5.8 06:02:14 36° SW 06:07:44 61° SSE 06:21:50 10° ENE visible
30 Aug 4.8 20:40:14 10° WSW 20:43:37 23° SSW 20:46:52 10° SSE visible
31 Aug 5.9 05:00:50 45° SSE 05:00:50 45° SSE 05:13:02 10° E visible
31 Aug 5.8 06:55:43 18° WSW 07:05:41 88° NNW 07:20:23 10° ENE visible
01 Sep 6.9 03:59:26 20° ESE 03:59:26 20° ESE 04:03:38 10° E visible
01 Sep 5.5 05:54:19 48° SW 05:58:14 73° SSE 06:12:20 10° ENE visible
01 Sep 5.3 20:32:34 10° WSW 20:35:09 15° SSW 20:37:34 10° SSE visible
02 Sep 5.8 04:52:56 50° SE 04:52:56 50° SE 05:03:44 10° E visible
02 Sep 5.7 06:47:49 23° WSW 06:56:10 74° NNW 07:10:38 10° ENE visible
03 Sep 7.0 03:51:33 18° E 03:51:33 18° E 03:54:41 10° E visible
03 Sep 5.1 05:46:26 63° WSW 05:48:49 87° SSE 06:02:38 10° ENE visible
03 Sep 5.7 20:25:48 10° SW 20:26:39 10° SSW 20:27:28 10° SSW visible
04 Sep 5.8 04:45:04 49° E 04:45:04 49° E 04:54:14 10° ENE visible
04 Sep 5.7 06:39:57 27° W 06:46:48 61° NNW 07:00:43 10° NE visible
05 Sep 7.1 03:43:41 15° E 03:43:41 15° E 03:45:33 10° E visible
05 Sep 5.0 05:38:34 72° WNW 05:39:32 77° NNW 05:52:46 10° ENE visible
06 Sep 6.0 04:37:10 41° ENE 04:37:10 41° ENE 04:44:35 10° ENE visible
06 Sep 5.8 06:32:03 28° WNW 06:37:38 49° NNW 06:50:40 10° NE visible
